Current Version              Previous Version:    01  02  03  04  05  06  07  08  09  10  11  12  13  14  15  16  17  18  19  20  21  22  23  24  25  26  27  28  29  30  
   31  32  33  34  35  36  37  38  39  40  41  42  43  44  45  46  47  48  49  50  51  52  53  54  55  56  57  58  59  60  

[Printable]
834
ASUS44 KEWX 291710
RWRTX
SOUTH TEXAS REGIONAL WEATHER ROUNDUP
NATIONAL WEATHER SERVICE AUSTIN/SAN ANTONIO TX
1100 AM CST THU JAN 29 2015

NOTE: "FAIR" INDICATED FEW OR NO CLOUDS BELOW 12,000 FEET WITH NO
SIGNIFICANT WEATHER AND/OR OBSTRUCTIONS TO VISIBILITY.

* - THESE STATIONS ARE NOT NWS OR FAA STATIONS...AND ARE NOT SUBJECT
    TO NWS AND FAA QUALITY CONTROL.

TXZ171-172-183>190-291800-
TEXAS HILL COUNTRY AND EDWARDS PLATEAU

CITY           SKY/WX    TMP DP  RH WIND       PRES   REMARKS
JUNCTION       MOSUNNY   65  45  48 SE6       30.27S
*LLANO         SUNNY     68  46  45 CALM      30.29S
BURNET         SUNNY     70  45  40 SW3       30.27S
*HORSESHOE BAY MOSUNNY   69  44  41 CALM      30.26F
*KERRVILLE     CLOUDY    57  54  87 CALM      30.29R
*FREDERICKSBRG SUNNY     65  47  52 N5        30.28R
*ROCKSPRINGS   MOSUNNY   64  48  55 NE7       30.28R
*BOERNE STAGE  CLOUDY    61  54  77 W3        30.29R
*CASTROVILLE   CLOUDY    60  58  93 CALM      30.27S
HONDO          CLOUDY    59  57  93 E3        30.27R
*UVALDE        CLOUDY    58  56  92 E8        30.25R
DEL RIO        MOSUNNY   63  50  62 VRB3      30.21S
LAUGHLIN AFB   MOSUNNY   64  53  66 SE3       30.22R
CARRIZO SPRGS  PTSUNNY   59  55  88 CALM      30.20F
$$

TXZ173-191>194-202-209-217>225-228-291800-
CENTRAL AND SOUTH CENTRAL TEXAS

CITY           SKY/WX    TMP DP  RH WIND       PRES   REMARKS
GEORGETOWN     SUNNY     68  52  56 SW8       30.24F
AUSTIN/BERGSTM PTSUNNY   65  56  72 VRB3      30.27F
AUSTIN/MABRY   SUNNY     66  54  65 CALM      30.28F
*AUSTIN/EXEC   MOSUNNY   66  55  68 S8        30.27F
*LAGO VISTA    MOSUNNY   67  49  52 CALM      30.27F
SAN MARCOS     PTSUNNY   63  57  82 W3        30.29R
NEW BRAUNFELS  CLOUDY    63  57  81 SW5       30.27R
RANDOLPH AFB   MOSUNNY   65  56  72 W6        30.27R
PT SAN ANTONIO CLOUDY    62  56  80 VRB1      30.25R
SAN ANTONIO    PTSUNNY   64  55  72 S7        30.27R
STINSON FIELD  PTSUNNY   64  56  75 S6        30.24R
*PLEASANTON    CLOUDY    66  58  75 S6        30.25S
*LA GRANGE     CLOUDY    66  62  86 W3        30.27R
*GIDDINGS      CLOUDY    61  59  91 CALM      30.33R
*GONZALES      NOT AVBL
$$

TXZ163>164-176>182-195>201-210>213-226-227-235-291800-
SOUTHEAST TEXAS

CITY           SKY/WX    TMP DP  RH WIND       PRES   REMARKS
COLLEGE STN    MOSUNNY   65  57  75 SW10      30.26F
*BRYAN         MOSUNNY   67  57  71 SW9G18    30.27F
*CALDWELL      CLOUDY    63  61  94 SW8       30.30F
*CROCKETT      SUNNY     66  57  72 SW9       30.28S
*BRENHAM       PTSUNNY   68  62  81 W7        30.29R
HUNTSVILLE     MOSUNNY   66  57  72 SW8       30.25F
CONROE         CLOUDY    63  59  87 W7        30.29R
HOUSTON BUSH   MOSUNNY   68  61  78 W10       30.27R
HOUSTON HOBBY  MOSUNNY   66  62  87 CALM      30.26S
*HOUSTON SW AP MOSUNNY   55  55 100 S3        30.27S
PEARLAND       PTSUNNY   67  61  81 W5        30.28R
HOUSTON HOOKS  PTSUNNY   68  59  73 W9        30.28R
ELLINGTON FLD  PTSUNNY   72  68  88 W5        30.28S
SUGAR LAND     CLOUDY    63  62  97 VRB3      30.27S FOG
*HOUSTON EXEC    N/A    N/A N/A N/A MISG        N/A
*CLEVELAND MUN   N/A     66  63  88 SW7       30.28S
*WHARTON       MOSUNNY   64  63  99 CALM      30.28R
*COLUMBUS      FAIR      65  61  88 CALM      30.26S
$$

TXZ214>216-236>238-291800-
THE UPPER TEXAS COAST

CITY           SKY/WX    TMP DP  RH WIND       PRES   REMARKS
*ORANGE        SUNNY     65  64  97 SW8       30.28S
PORT ARTHUR    SUNNY     69  61  75 SW6       30.26S
GALVESTON      MOSUNNY   70  64  81 VRB5      30.27R
ANGLETON       SUNNY     69  61  75 SW6       30.27R
*BAY CITY      CLOUDY    69  67  92 SW3       30.27R
PALACIOS       SUNNY     69  63  81 S7        30.26
$$

TXZ229>234-239>247-291800-
TEXAS COASTAL BEND AND RIO GRANDE PLAINS

CITY           SKY/WX    TMP DP  RH WIND       PRES   REMARKS
VICTORIA       SUNNY     71  63  75 S7        30.26R
*BEEVILLE      PTSUNNY   62  62 100 SW6       30.25R
ROCKPORT       SUNNY     72  61  68 S9        30.24R
*PORT ARANSAS  SUNNY     69  63  81 S6        30.24R
*PORT LAVACA   SUNNY     69  65  86 S9        30.25S
*INGLESIDE     SUNNY     68  57  67 S9        30.23S
CORPUS CHRISTI MOSUNNY   73  61  65 S15       30.23R
CORPUS NAS     NOT AVBL
*ROBSTOWN      SUNNY     69  63  80 S9        30.24S
ALICE          MOSUNNY   68  61  78 S7        30.22F
KINGSVILLE NAS MOSUNNY   71  64  78 S8        30.23R
COTULLA        SUNNY     69  58  67 S6        30.21S
*FAITH RANCH   SUNNY     64  55  72 SE9       30.21S
LAREDO         SUNNY     72  55  56 SE8       30.22R
$$

TXZ248>255-291800-
DEEP SOUTH TEXAS

CITY           SKY/WX    TMP DP  RH WIND       PRES   REMARKS
BROWNSVILLE    PTSUNNY   74  61  63 SE18      30.22S
PORT ISABEL    MOSUNNY   74  61  63 SE16      30.21S
*SOUTH PADRE   SUNNY     68  61  77 SW8       30.22S
HARLINGEN      MOSUNNY   75  62  64 S16       30.21R
*HEBBRONVILLE  MOSUNNY   68  59  74 SE14      30.21F
MCALLEN        SUNNY     70  62  76 SE12      30.22S
*WESLACO       PTSUNNY   72  63  73 S8        30.22S
FALFURRIAS     MOSUNNY   68  62  79 S13       30.22F
EDINBURG       PTSUNNY   74  62  66 SE10      30.22F
*ZAPATA        SUNNY     70  55  58 SE8       30.19S
$$

TXZ213>215-236>238-242>244-246-247-251-254-255-291800-
CMAN STATIONS

STATION/POSITION TIME  TEMP    WIND        PRES    WAVE
                       AIR SEA DIR/SP/G            HT/PER
                 (UTC) (F)     (DEG/KT/KT) (MB)    (FT/S)
SABINE PASS      1700   69 55  250/  3/  8 1024.9
SEA RIM ST PARK  1700   64     210/  6/  7 1025.4
NORTH JETTY/GLS  1700   66 57  190/  2/  3   N/A
EAGLE POINT      1700   58 57   60/  6/  6 1024.9
MORGANS POINT    1700   63      CALM  /  3 1024.8
MISSION/ARANSAS  1600   63     VRB  4      1024.0
PORT O`CONNOR    1700           80/  5/  5   N/A
PORT ARANSAS     1700   65 60  150/  3/  4 1024.5
MALAQUITE BEACH  1700          150/  5/  5   N/A
BAFFIN BAY       1700          170/  9/ 10   N/A
PORT ISABEL      1700          140/ 11/ 14   N/A
$$

GMZ080-GMZ150>470-291800-
OFFSHORE BUOY REPORTS

STATION/POSITION TIME  TEMP    WIND        PRES    WAVE
                       AIR SEA DIR/SP/G            HT/PER
                 (UTC) (F)     (DEG/KT/KT) (MB)    (FT/S)
20 E GALVESTON   1700   60 58  290/  2/  2 1024.8    2/ 4
90 E PT ARANSAS  1700   69 68  170/  8/ 10 1024.7    2/ 4
35 NE PT MANSFLD 1700   68 70  180/  6/  8 1023.6    2/ 5
200 E PT ISABEL  1700   71 72  160/  8/ 10 1024.5    1/ 3
$$



939
ASUS44 KFWD 291710
RWRTX
NORTH TEXAS HOURLY WEATHER ROUNDUP
NATIONAL WEATHER SERVICE FORT WORTH TX
1100 AM CST THU JAN 29 2015

NOTE: "FAIR" INDICATES FEW OR NO CLOUDS BELOW 12,000 FEET WITH NO
SIGNIFICANT WEATHER AND/OR OBSTRUCTIONS TO VISIBILITY.

TXZ118-119-291800-
DALLAS/FORT WORTH METROPLEX

CITY           SKY/WX    TMP DP  RH WIND       PRES   REMARKS
DFW AIRPORT    MOSUNNY   65  36  34 N17       30.29R
DALLAS LOVE    MOSUNNY   64  37  36 N17       30.29R
FTW MEACHAM    SUNNY     66  38  35 N22       30.30R
DAL-EXECUTIVE  SUNNY     67  37  33 N14       30.27R
FTW-ALLIANCE   MOSUNNY   64  36  35 N20G29    30.30R
FTW-SPINKS     SUNNY     64  37  36 N17G23    30.31R
ARLINGTON      SUNNY     67  33  28 N18       30.29R
GRAND PRAIRIE  SUNNY     64  39  39 N16G25    30.30R
ADDISON        MOSUNNY   63  36  36 N15G25    30.29
MESQUITE       SUNNY     64  37  36 N13       30.28R
LANCASTER      SUNNY     64  36  35 N15G21    30.29R
$$

TXZ091>094-102>105-117-120-121-131>134-291800-
NORTH CENTRAL TEXAS

CITY           SKY/WX    TMP DP  RH WIND       PRES   REMARKS
SHRMAN/DENISON SUNNY     62  40  44 N21       30.33R
GAINESVILLE    SUNNY     60  36  40 N18       30.35R
BOWIE          MOSUNNY   59  36  41 N13G23    30.36R
BRIDGEPORT     SUNNY     62  39  42 N14       30.35R
DECATUR        SUNNY     61  34  35 N13G24    30.33R
DENTON         MOSUNNY   62  36  37 N22       30.31R
MCKINNEY       MOSUNNY   65  37  35 N16G24    30.29R
GREENVILLE     SUNNY     64  34  32 N17G23    30.27R
ROCKWALL       SUNNY     65  38  36 N16G23    30.26R
TERRELL        SUNNY     68  38  33 N15G24    30.27R
WAXAHACHIE     SUNNY     66  39  37 N12G20    30.28S
CLEBURNE       SUNNY     64  36  34 N21       30.30R
GRANBURY       SUNNY     66  37  33 N17G23    30.30S
$$

TXZ083>090-098>101-113>116-127>130-139>142-154-155-291800-
WESTERN NORTH TEXAS

CITY           SKY/WX    TMP DP  RH WIND       PRES   REMARKS
WICHITA FALLS  PTSUNNY   58  37  45 N23       30.39R
WF-KICKAPOO    PTSUNNY   49  29  45 N17G25    30.39S
VERNON         PTSUNNY   56  30  37 N22G30    30.43R
ABILENE        MOSUNNY   59  36  42 N17       30.35R
ABILENE-DYESS  MOSUNNY   58  38  46 N17       30.35R
BRECKENRIDGE   PTSUNNY   61  35  36 NE20G28   30.34R
GRAHAM         MOSUNNY   60  39  45 N20G25    30.34R
MINERAL WELLS  MOSUNNY   62  35  36 N17       30.30R
STEPHENVILLE   SUNNY     64  35  34 NE16G23   30.33R
COMANCHE       MOSUNNY   65  38  37 NE15G22   30.31R
BROWNWOOD      MOSUNNY   64  36  34 NE12G17   30.31R
COLEMAN        MOSUNNY   62  39  42 NE20G25   30.33R
BRADY          SUNNY     63  37  39 NE14      30.29R
$$

TXZ143>147-156>162-174-175-291800-
CENTRAL TEXAS

CITY           SKY/WX    TMP DP  RH WIND       PRES   REMARKS
WACO           SUNNY     64  46  52 N12       30.26R
WACO-TSTC      SUNNY     66  48  52 N8        30.26R
WACO-MCGREGOR  SUNNY     66  46  48 N10       30.27R
HILLSBORO      SUNNY     67  37  33 N16G22    30.26S
CORSICANA      SUNNY     66  46  48 N8        30.27R
MEXIA          SUNNY     64  56  74 W9        30.26R
HEARNE         SUNNY     65  58  76 S15G21    30.27S
CAMERON        SUNNY     67  57  69 SW10      30.24F
TEMPLE         SUNNY     68  50  52 W3        30.24R
KILLEEN        PTSUNNY   67  44  42 N13       30.25R
KILLEEN-SKYLRK SUNNY     66  43  42 NW10      30.23R
FORT HOOD      SUNNY     67  45  45 NW8       30.25R
GATESVILLE     SUNNY     64  41  42 NE12G17   30.28S
HAMILTON       MOSUNNY   64  35  33 NE12      30.29R
LAMPASAS       PTSUNNY   64  42  44 N9        30.26R
$$

TXZ095>097-106>112-122>126-135>138-148>153-164>167-291800-
EAST TEXAS

CITY           SKY/WX    TMP DP  RH WIND       PRES   REMARKS
PARIS          MOSUNNY   63  37  39 N14       30.27R
SULPHUR SPRNGS SUNNY     64  38  37 N18       30.28R
MOUNT PLEASANT SUNNY     67  40  36 N10G18    30.25R
GILMER         SUNNY     65  46  51 NW7       30.23R
MINEOLA        SUNNY     64  39  39 N8        30.26R
TYLER          SUNNY     66  51  58 NW9       30.24R
LONGVIEW       SUNNY     67  52  58 W12       30.22R
MARSHALL       SUNNY     68  55  61 NW8G16    30.24S
ATHENS         SUNNY     63  50  63 NW3       30.25R
PALESTINE      CLOUDY    65  57  77 W7        30.27R
JACKSONVILLE   CLOUDY    66  55  65 MISG      30.26R
HENDERSON      MOSUNNY   65  55  70 W6        30.25R
NACOGDOCHES    PTSUNNY   66  54  63 W8        30.25R
LUFKIN         SUNNY     70  55  59 SW8       30.25R
$$

SUPPLEMENTAL OBSERVATIONS (CENTRAL)

CITY           SKY/WX    TMP DP  RH WIND       PRES   REMARKS
CADDO GRASSLND   N/A     66  37  34 VRB9G18     N/A
PAT MAYSE LAKE   N/A     61  34  36 NW16        N/A
PALESTINE        N/A     70  55  60 W3          N/A
MCGREGOR         N/A     68  45  42 N7          N/A
TEMPLE           N/A     68  54  60 SW3G13      N/A
$$

SUPPLEMENTAL OBSERVATIONS (WEST)

CITY           SKY/WX    TMP DP  RH WIND       PRES   REMARKS
MILLERS CREEK    N/A     55  37  50 N16G26      N/A
POSSUM KINGDOM   N/A     61  36  39 VRB14       N/A
LBJ GRASSLAND    N/A     63  36  36 N10G23      N/A
GRANBURY         N/A     64  34  32 N16         N/A
HAMBY            N/A     61  36  39 N15G23      N/A
IVIE RESERVOIR   N/A     64  36  34 NE16G23     N/A
COLORADO BEND    N/A     64  41  42 NE8         N/A
$$

SUPPLEMENTAL OBSERVATIONS (EAST)

CITY           SKY/WX    TMP DP  RH WIND       PRES   REMARKS
CLARKSVILLE      N/A     64  37  36 N14         N/A
TEXARKANA        N/A     66  43  42 NW6         N/A
LINDEN           N/A     68  46  45 NW6G14      N/A
GILMER           N/A     68  46  45 N6G14       N/A
HENDERSON        N/A     64  54  68 W12         N/A
LUFKIN           N/A     70  52  52 MISG        N/A
N SABINE NF      N/A     70  55  60 MISG        N/A
S SABINE NF      N/A     72  57  60 W5          N/A
$$

SUPPLEMENTAL OBSERVATIONS ARE A COLLECTION OF AUTOMATED INSTRUMENTS
THAT ARE MAINTAINED BY A VARIETY OF FEDERAL AND STATE AGENCIES.
CERTAIN ELEMENTS...SUCH AS HUMIDITY VALUES AND SUSTAINED WIND
SPEEDS...MAY BE APPROXIMATED.